Weather in Tamale

Ghana     9°23′58″N   0°50′23″E
temp.,
°C
wind,
m/s
gust,
m/s
humid.,
%
clouds,
%
prec.,
mm/h
press.,
hPa
HPBL,
m
13 june, sun
sun1300:00+28ese376486 0.0 1012208
03:00+26sse1369100 0.0 1011126
06:00+26sse247189 0.0 1011127
09:00+31s455583 0.0 1012697
12:00+36se443797 0.0 10111623
15:00+37se4534100 0.0 10082161
18:00+35ene123920 0.0 100824
21:00+31ssw374966 0.1 1011244
14 june, mon
mon1400:00+29s3957100 0.1 1012369
03:00+27ssw4106621 0.0 1011662
06:00+25sw497879 0.0 1012603
09:00+30sw676122 0.0 10131052
12:00+35sw444377 0.0 10121981
15:00+35sse333980 0.2 10091975
18:00+34se36443 0.2 1009295
21:00+28sse5106595 0.1 1011344
15 june, tue
tue1500:00+27ssw3973100 0.2 1012438
03:00+26ssw388084 0.0 1011394
06:00+25ssw398244 0.0 1012411
09:00+30ssw5656100 0.0 10121012
12:00+35sw444185 0.0 10112026
15:00+37wsw3233100 0.1 10092806
18:00+33nw364724 0.3 1009260
21:00+25ese81385100 3.8 1014599
16 june, wed
wed1600:00+24s4882100 7.5 1013249
03:00+23ssw2588100 0.2 1012253
06:00+23wsw51086100 0.2 1012341
09:00+26sw3574100 0.0 1013410
12:00+33wsw444499 0.0 10111248
15:00+36w223793 0.0 10092050
18:00+33se2346100 0.1 100968
21:00+28sw3764100 0.4 1011224
17 june, thu
thu1700:00+25sw4782100 1.3 1013359
03:00+24sw368692 0.8 1012291
06:00+24ssw4987100 0.8 1013372
09:00+28ssw576695 0.0 1014817
12:00+33ssw4448100 0.0 10131463
15:00+35sw3340100 0.0 10102101
18:00+33sw234697 0.0 101094
21:00+30ssw375767 0.2 1011317